Date String (YYYY-MM-DD hh:mm:ss) UTC,Instrument flags,absolute air pressure of the measurement (hPa),sample flow rate (lpm),inlet stack bypass flow (lpm),air temperature of the measurement (°C),ambient temperature measured by the external sensor (°C),aerosol sample conditioner tube jacket temperature (°C),OPC LED temperature (°C),internal box temperature (°C),relative humidity of the measurement (%),span deviation,mass concentration of particles derived from Lorenz-Mie calculation of OPC scattering (μg/m³),mass concentration of particles derived from Lorenz-Mie calculation of OPC scattering (μg/m³),mass concentration of particles derived from Lorenz-Mie calculation of OPC scattering (μg/m³)
DateTimeUTC,F1_M11,P_M11,Q1_M11,Q2_M11,T1_M11,T2_M11,T3_M11,T4_M11,T5_M11,U1_M11,ZSPAN_M11,X0_M11,X2_M11,X1_M11
2023-06-07 01:00:00,SystemResetWarning,0829.9,5.00,000.00,029.8,026.5,000.0,038.2,031.3,24.9,0000.0,0004.65,0003.10,0002.47
2023-06-07 01:01:00,SystemResetWarning,0829.9,5.00,000.00,029.7,024.7,000.0,038.1,031.1,24.0,0000.0,0004.62,0003.10,0002.49
2023-06-07 01:02:00,SystemResetWarning,0829.9,5.01,000.00,029.7,024.3,000.0,038.1,031.0,25.0,0000.0,0004.88,0003.14,0002.52
2023-06-07 01:03:00,SystemResetWarning,0829.9,5.02,000.00,029.6,024.6,000.0,038.1,030.8,24.6,0000.0,0005.16,0003.16,0002.54
2023-06-07 01:04:00,SystemResetWarning,0829.9,4.98,000.00,029.5,025.1,000.0,038.1,030.7,24.7,0000.0,0005.27,0003.18,0002.57
2023-06-07 01:05:00,SystemResetWarning,0829.9,4.99,000.00,029.4,025.6,000.0,038.0,030.7,25.5,0000.0,0006.08,0003.17,0002.59
2023-06-07 01:06:00,SystemResetWarning,0829.9,5.00,000.00,029.4,026.1,000.0,038.0,030.7,24.4,0000.0,0006.83,0003.16,0002.60
2023-06-07 01:07:00,SystemResetWarning,0829.9,5.01,000.00,029.4,026.5,000.0,038.0,030.8,24.5,0000.0,0006.83,0003.16,0002.62
2023-06-07 01:08:00,SystemResetWarning,0829.8,5.00,000.00,029.4,026.8,000.0,038.0,030.8,24.6,0000.0,0006.91,0003.19,0002.63
2023-06-07 01:09:00,SystemResetWarning,0829.8,4.99,000.00,029.4,027.1,000.0,038.0,030.8,25.6,0000.0,0006.95,0003.20,0002.66
2023-06-07 01:10:00,SystemResetWarning,0829.8,5.00,000.00,029.4,027.4,000.0,038.0,030.9,25.4,0000.0,0006.87,0003.20,0002.68
2023-06-07 01:11:00,SystemResetWarning,0829.7,5.00,000.00,029.5,027.6,000.0,038.0,030.9,25.7,0000.0,0007.10,0003.20,0002.68
2023-06-07 01:12:00,SystemResetWarning,0829.7,5.00,000.00,029.5,027.8,000.0,038.0,031.0,24.6,0000.0,0007.05,0003.19,0002.68
2023-06-07 01:13:00,SystemResetWarning,0829.7,5.00,000.00,029.5,027.9,000.0,038.0,031.0,24.3,0000.0,0007.01,0003.21,0002.67
2023-06-07 01:14:00,SystemResetWarning,0829.7,5.00,000.00,029.5,028.1,000.0,038.0,031.1,25.1,0000.0,0006.83,0003.18,0002.66
2023-06-07 01:15:00,SystemResetWarning,0829.7,4.99,000.00,029.6,028.2,000.0,038.0,031.1,24.6,0000.0,0007.14,0003.18,0002.65
2023-06-07 01:16:00,SystemResetWarning,0829.7,4.99,000.00,029.6,028.3,000.0,038.1,031.2,25.5,0000.0,0006.30,0003.18,0002.65
2023-06-07 01:17:00,SystemResetWarning,0829.7,5.00,000.00,029.6,028.4,000.0,038.1,031.2,25.5,0000.0,0005.56,0003.20,0002.67
2023-06-07 01:18:00,SystemResetWarning,0829.6,5.01,000.00,029.7,028.4,000.0,038.1,031.2,27.5,0000.0,0005.79,0003.26,0002.76
2023-06-07 01:19:00,SystemResetWarning,0829.6,4.99,000.00,029.7,028.0,000.0,038.1,031.3,28.6,0000.0,0006.08,0003.35,0002.88
2023-06-07 01:20:00,SystemResetWarning,0829.6,5.00,000.00,029.7,026.1,000.0,038.1,031.2,29.3,0000.0,0007.07,0003.44,0003.02
2023-06-07 01:21:00,SystemResetWarning,0829.6,5.00,000.00,029.7,025.3,000.0,038.0,031.2,28.9,0000.0,0007.38,0003.56,0003.15
2023-06-07 01:22:00,SystemResetWarning,0829.5,5.01,000.00,029.6,025.5,000.0,038.0,031.0,29.4,0000.0,0007.47,0003.64,0003.22
2023-06-07 01:23:00,SystemResetWarning,0829.5,5.00,000.00,029.5,025.8,000.0,038.0,030.8,30.9,0000.0,0008.03,0003.75,0003.31
2023-06-07 01:24:00,SystemResetWarning,0829.5,5.00,000.00,029.5,026.2,000.0,038.0,030.8,32.2,0000.0,0008.33,0003.87,0003.40
2023-06-07 01:25:00,SystemResetWarning,0829.6,5.00,000.00,029.5,026.6,000.0,038.0,030.8,33.0,0000.0,0008.60,0004.00,0003.54
2023-06-07 01:26:00,SystemResetWarning,0829.6,5.00,000.00,029.5,026.9,000.0,038.0,030.9,32.9,0000.0,0008.76,0004.17,0003.70
2023-06-07 01:27:00,SystemResetWarning,0829.6,4.99,000.00,029.5,027.2,000.0,038.0,030.9,32.4,0000.0,0009.76,0004.36,0003.85
2023-06-07 01:28:00,SystemResetWarning,0829.6,5.00,000.00,029.5,027.5,000.0,038.0,031.0,31.2,0000.0,0010.01,0004.51,0003.97
2023-06-07 01:29:00,SystemResetWarning,0829.6,4.99,000.00,029.5,027.7,000.0,038.1,031.0,31.3,0000.0,0010.06,0004.55,0004.03
2023-06-07 01:30:00,SystemResetWarning,0829.7,5.00,000.00,029.6,027.8,000.0,038.1,031.1,33.3,0000.0,0010.09,0004.61,0004.10
2023-06-07 01:31:00,SystemResetWarning,0829.7,5.00,000.00,029.6,028.0,000.0,038.1,031.1,33.5,0000.0,0009.78,0004.67,0004.18
2023-06-07 01:32:00,SystemResetWarning,0829.7,5.01,000.00,029.6,028.1,000.0,038.1,031.2,33.0,0000.0,0009.80,0004.76,0004.24
2023-06-07 01:33:00,SystemResetWarning,0829.7,5.00,000.00,029.6,028.2,000.0,038.1,031.2,32.5,0000.0,0009.93,0004.90,0004.36
2023-06-07 01:34:00,SystemResetWarning,0829.7,5.00,000.00,029.7,028.3,000.0,038.1,031.2,32.2,0000.0,0009.64,0004.98,0004.46
2023-06-07 01:35:00,SystemResetWarning,0829.7,5.00,000.00,029.7,028.4,000.0,038.1,031.3,31.7,0000.0,0009.40,0005.01,0004.52
2023-06-07 01:36:00,SystemResetWarning,0829.7,4.99,000.00,029.7,028.1,000.0,038.2,031.3,32.1,0000.0,0009.57,0005.04,0004.57
2023-06-07 01:37:00,SystemResetWarning,0829.6,5.00,000.00,029.7,026.0,000.0,038.1,031.3,32.2,0000.0,0010.01,0005.07,0004.58
2023-06-07 01:38:00,SystemResetWarning,0829.6,5.01,000.00,029.7,024.5,000.0,038.1,031.1,32.8,0000.0,0009.51,0005.09,0004.61
2023-06-07 01:39:00,SystemResetWarning,0829.5,5.01,000.00,029.6,024.3,000.0,038.0,030.9,32.5,0000.3,0009.69,0005.15,0004.65
2023-06-07 01:40:00,SystemResetWarning,0829.5,4.99,000.00,029.5,024.6,000.0,038.0,030.6,32.6,0000.0,0009.74,0005.25,0004.73
2023-06-07 01:41:00,SystemResetWarning,0829.4,5.00,000.00,029.4,025.1,000.0,038.0,030.6,33.0,0000.0,0009.76,0005.30,0004.77
2023-06-07 01:42:00,SystemResetWarning,0829.4,5.00,000.00,029.3,025.6,000.0,038.0,030.6,33.3,0000.0,0009.93,0005.31,0004.79
2023-06-07 01:43:00,SystemResetWarning,0829.4,4.99,000.00,029.3,026.1,000.0,038.0,030.7,33.5,0000.0,0010.31,0005.31,0004.80
2023-06-07 01:44:00,SystemResetWarning,0829.4,5.00,000.00,029.3,026.5,000.0,038.0,030.7,33.5,0000.0,0010.32,0005.31,0004.81
2023-06-07 01:45:00,SystemResetWarning,0829.4,5.00,000.00,029.3,026.8,000.0,037.9,030.7,33.1,0000.0,0010.61,0005.33,0004.81
2023-06-07 01:46:00,SystemResetWarning,0829.5,4.99,000.00,029.3,027.1,000.0,037.9,030.8,33.1,0000.0,0010.80,0005.35,0004.81
2023-06-07 01:47:00,SystemResetWarning,0829.5,4.99,000.00,029.4,027.4,000.0,037.9,030.8,33.0,0000.0,0010.65,0005.35,0004.81
2023-06-07 01:48:00,SystemResetWarning,0829.5,5.00,000.00,029.4,027.6,000.0,038.0,030.9,33.4,0000.0,0009.92,0005.34,0004.81
2023-06-07 01:49:00,SystemResetWarning,0829.5,5.00,000.00,029.4,027.7,000.0,038.0,030.9,33.0,0000.0,0010.19,0005.31,0004.81
2023-06-07 01:50:00,SystemResetWarning,0829.4,5.02,000.00,029.4,027.9,000.0,038.0,031.0,32.4,0000.0,0010.84,0005.30,0004.80
2023-06-07 01:51:00,SystemResetWarning,0829.4,5.01,000.00,029.5,028.0,000.0,038.0,031.0,32.1,0000.0,0010.74,0005.26,0004.78
2023-06-07 01:52:00,SystemResetWarning,0829.4,5.00,000.00,029.5,028.1,000.0,038.0,031.1,31.5,0000.0,0010.62,0005.20,0004.76
2023-06-07 01:53:00,SystemResetWarning,0829.4,5.00,000.00,029.5,028.2,000.0,038.0,031.1,31.2,0000.0,0010.96,0005.19,0004.74
2023-06-07 01:54:00,SystemResetWarning,0829.4,5.00,000.00,029.6,028.3,000.0,038.0,031.2,30.5,0000.5,0010.68,0005.16,0004.70
2023-06-07 01:55:00,SystemResetWarning,0829.3,5.00,000.00,029.6,028.4,000.0,038.1,031.2,30.2,0000.4,0010.59,0005.08,0004.65
2023-06-07 01:56:00,SystemResetWarning,0829.3,5.00,000.00,029.6,028.4,000.0,038.1,031.3,29.5,0000.0,0010.81,0005.03,0004.60
2023-06-07 01:57:00,SystemResetWarning,0829.4,5.00,000.00,029.7,028.4,000.0,038.1,031.3,29.6,0000.3,0010.36,0004.96,0004.54
2023-06-07 01:58:00,SystemResetWarning,0829.3,4.99,000.00,029.7,026.8,000.0,038.1,031.3,30.3,0000.0,0010.32,0004.92,0004.50
2023-06-07 01:59:00,SystemResetWarning,0829.3,5.00,000.00,029.7,024.8,000.0,038.0,031.2,28.5,0000.0,0010.21,0004.85,0004.44
